Location: Highland Meadows Observing Site
(48.4428°N, 114.5461°W)
Time: 22:17:53
(UTC-06:00)

Amateur Radio Satellites - All Passes

Search period start: 01 August 2015 21:47
Search period end: 02 August 2015 21:47
Location: Highland Meadows Observing Site, 48.4428°N, 114.5461°W

Satellite Date Start Highest point End Downlink Frequencies (MHz)
Time Altitude Azimuth
DX 1 01 Aug 21:56:23 21:58:37 14° 59° (ENE) 22:01:00 434.975-435.025
PHONESAT 2.4 01 Aug 21:58:55 22:01:24 18° 167° (SSE) 22:03:53 2401.200-2431.200
VELOX 1 01 Aug 22:13:49 22:15:46 13° 58° (ENE) 22:17:55 145.980
Cosmos 2491 01 Aug 22:19:46 22:25:46 21° 53° (NE) 22:32:05 435.465 / 435.565
M-CUBED/EXP-1 PRIME 01 Aug 22:21:17 22:24:10 16° 92° (E) 22:27:12 437.505
ZACube-1 01 Aug 22:26:30 22:30:42 71° 75° (ENE) 22:35:02 437.345
ESTCUBE 1 01 Aug 22:28:14 22:30:22 14° 58° (ENE) 22:32:40 437.505/2401.250
COMPASS 1 01 Aug 22:32:59 22:36:36 26° 267° (W) 22:40:11 437.405
DOVE 4 01 Aug 22:42:58 22:44:47 12° 274° (W) 22:46:26 437.250
50 SAT 01 Aug 22:43:11 22:46:16 23° 65° (ENE) 22:49:25 437.505
CINEMA 3 01 Aug 22:44:44 22:48:09 24° 268° (W) 22:51:35 145.822/145.860
FUNcube-1 01 Aug 22:47:53 22:52:05 72° 258° (WSW) 22:56:25 145.935
AUBIESAT-1 01 Aug 22:49:16 22:53:08 25° 97° (E) 22:57:00 437.475
SEEDS 01 Aug 22:50:36 22:53:14 15° 272° (W) 22:55:43 437.485
UWE-3 01 Aug 22:52:19 22:56:24 49° 261° (W) 23:00:38 435.000/436.395/437.385
DELFI C3 01 Aug 22:53:45 22:57:45 53° 260° (W) 23:01:45 145.870
CUTE 1.7 + AOD 2 01 Aug 22:55:53 22:57:32 12° 275° (W) 22:58:59 437.475
Oscar 11 01 Aug 22:59:51 23:03:50 34° 264° (W) 23:07:50 145.826/435.025
UKube-1 01 Aug 23:00:50 23:04:59 49° 70° (ENE) 23:09:11 .
HUMSAT D 01 Aug 23:07:00 23:11:10 81° 74° (ENE) 23:15:24 437.325/437.525
STRAND 1 01 Aug 23:08:07 23:09:18 11° 308° (NW) 23:10:15 437.568
AISAT 01 Aug 23:08:52 23:12:59 40° 68° (ENE) 23:17:07 437.250
CUBEBUG 2 01 Aug 23:10:11 23:13:49 27° 267° (W) 23:17:28 437.445
VERMONT LUNAR 01 Aug 23:10:35 23:11:56 12° 199° (SSW) 23:13:15 437.305
AAUSAT CUBESAT 2 01 Aug 23:15:58 23:17:50 12° 274° (W) 23:19:31 437.432
ISS 01 Aug 23:16:58 23:20:14 87° 148° (SSE) 23:23:30 145.825
RS-15 01 Aug 23:19:08 23:30:07 89° 123° (ESE) 23:41:37 29.354- 29.394
CUBEBUG 1 01 Aug 23:20:53 23:24:41 31° 67° (ENE) 23:28:33 437.445
AIST 1 01 Aug 23:24:18 23:28:15 35° 73° (ENE) 23:32:11
DX 1 01 Aug 23:29:59 23:34:20 79° 256° (WSW) 23:38:42 434.975-435.025
UNISAT 6 01 Aug 23:33:36 23:37:38 28° 93° (E) 23:41:45 437.425
PHONESAT 2.4 01 Aug 23:35:57 23:38:44 22° 184° (S) 23:41:31 2401.200-2431.200
POPSAT HIP 1 01 Aug 23:38:24 23:39:52 12° 86° (E) 23:41:34 437.405
HO-68 01 Aug 23:39:15 23:41:17 11° 281° (W) 23:42:49 435.675
QB50P2 01 Aug 23:45:35 23:47:55 15° 88° (E) 23:50:25 145.880/145.840
VELOX 1 01 Aug 23:47:18 23:51:43 89° 255° (WSW) 23:56:10 145.980
BEESAT 3 01 Aug 23:50:50 23:53:55 21° 115° (ESE) 23:57:06 437.485
SPROUT 01 Aug 23:54:18 23:57:34 22° 64° (ENE) 00:00:57 437.525
M-CUBED/EXP-1 PRIME 01 Aug 23:54:40 23:59:31 76° 292° (WNW) 00:04:15 437.505
ESTCUBE 1 02 Aug 00:02:04 00:06:37 90° 288° (WNW) 00:11:11 437.505/2401.250
TISAT 1 02 Aug 00:03:22 00:06:10 18° 62° (ENE) 00:09:04 437.305
ZACube-1 02 Aug 00:05:34 00:07:41 13° 274° (W) 00:09:37 437.345
DUCHIFAT 1 02 Aug 00:08:27 00:11:48 23° 92° (E) 00:15:14 145.980
QB50P1 02 Aug 00:12:13 00:15:47 26° 93° (E) 00:19:24 145.935-145.965
NANOSAT C BR1 02 Aug 00:13:07 00:16:40 26° 94° (E) 00:20:17 145.865
Cosmos 2491 02 Aug 00:15:41 00:24:28 78° 79° (E) 00:33:11 435.465 / 435.565
TIGRISAT 02 Aug 00:16:13 00:20:54 68° 101° (E) 00:25:36 435.000
50 SAT 02 Aug 00:17:03 00:20:40 35° 263° (W) 00:24:19 437.505
ANTELSAT 02 Aug 00:18:22 00:23:05 74° 103° (ESE) 00:27:49 437.575/2403.000
AUBIESAT-1 02 Aug 00:23:27 00:28:04 49° 296° (WNW) 00:32:33 437.475
UKube-1 02 Aug 00:38:13 00:41:25 19° 269° (W) 00:44:31 .
YUBILEINY 02 Aug 00:41:29 00:49:28 44° 87° (E) 00:57:38 435.215
AISAT 02 Aug 00:46:06 00:49:43 24° 267° (W) 00:53:17 437.250
HUMSAT D 02 Aug 00:46:13 00:47:34 11° 275° (W) 00:48:43 437.325/437.525
BEESAT 2 02 Aug 00:48:51 00:52:53 59° 124° (SE) 00:56:58 435.950
AIST 2 02 Aug 00:51:03 00:53:48 17° 113° (ESE) 00:56:41 435.215
ISS 02 Aug 00:53:41 00:56:51 45° 357° (N) 01:00:01 145.825
POLYITAN 1 02 Aug 00:55:21 00:59:40 72° 103° (ESE) 01:03:57 437.675
CUBEBUG 1 02 Aug 00:57:09 01:01:02 31° 265° (W) 01:04:54 437.445
AIST 1 02 Aug 01:02:17 01:05:44 24° 271° (W) 01:09:07
BEESAT 02 Aug 01:03:25 01:06:26 17° 59° (ENE) 01:09:35 436.000
UNISAT 6 02 Aug 01:10:08 01:14:31 39° 292° (WNW) 01:18:51 437.425
BUGSAT 1 02 Aug 01:11:37 01:15:40 65° 101° (E) 01:19:45 437.445
POPSAT HIP 1 02 Aug 01:12:06 01:16:23 80° 285° (WNW) 01:20:39 437.405
PHONESAT 2.4 02 Aug 01:14:16 01:16:00 13° 200° (SSW) 01:17:41 2401.200-2431.200
QB50P2 02 Aug 01:20:03 01:24:17 64° 287° (WNW) 01:28:31 145.880/145.840
SWISSCUBE 02 Aug 01:23:00 01:26:56 26° 63° (ENE) 01:30:57 437.505
BEESAT 3 02 Aug 01:27:34 01:31:34 51° 314° (NW) 01:35:36 437.485
VELOX 1 02 Aug 01:27:55 01:29:02 11° 275° (W) 01:29:54 145.980
SPROUT 02 Aug 01:29:21 01:33:26 43° 262° (W) 01:37:32 437.525
M-CUBED/EXP-1 PRIME 02 Aug 01:30:55 01:33:33 14° 309° (NW) 01:36:02 437.505
RS-15 02 Aug 01:33:35 01:44:03 43° 337° (NNW) 01:54:56 29.354- 29.394
TISAT 1 02 Aug 01:37:28 01:41:35 54° 260° (W) 01:45:42 437.305
Oscar 19 02 Aug 01:40:45 01:42:09 11° 83° (E) 01:43:54 437.125/150
ESTCUBE 1 02 Aug 01:42:41 01:44:15 11° 275° (W) 01:45:33 437.505/2401.250
DUCHIFAT 1 02 Aug 01:43:47 01:47:46 40° 291° (WNW) 01:51:44 145.980
ITUPSAT 1 02 Aug 01:43:56 01:48:16 35° 67° (ENE) 01:52:41 437.325
QB50P1 02 Aug 01:47:50 01:51:44 35° 292° (WNW) 01:55:37 145.935-145.965
NANOSAT C BR1 02 Aug 01:48:41 01:52:35 35° 292° (WNW) 01:56:27 145.865
Cosmos 2504 02 Aug 01:51:34 01:54:23 13° 72° (ENE) 01:57:43 435.465 / 435.565
TIGRISAT 02 Aug 01:53:59 01:57:12 18° 299° (WNW) 02:00:19 435.000
ANTELSAT 02 Aug 01:56:17 01:59:22 17° 300° (WNW) 02:02:19 437.575/2403.000
Cosmos 2491 02 Aug 02:13:35 02:20:32 27° 280° (W) 02:27:13 435.465 / 435.565
O/OREOS (USA 219) 02 Aug 02:20:19 02:24:37 48° 110° (ESE) 02:29:00 437.305
AIST 2 02 Aug 02:27:42 02:31:57 67° 311° (NW) 02:36:13 435.215
BEESAT 2 02 Aug 02:27:49 02:31:15 24° 324° (NW) 02:34:39 435.950
ISS 02 Aug 02:30:18 02:33:33 68° 17° (NNE) 02:36:49 145.825
POLYITAN 1 02 Aug 02:32:32 02:35:05 15° 300° (WNW) 02:37:28 437.675
YUBILEINY 02 Aug 02:37:51 02:46:17 50° 290° (WNW) 02:54:45 435.215
BEESAT 02 Aug 02:38:58 02:43:45 76° 257° (WSW) 02:48:36 436.000
Gurwin Techsat 1B 02 Aug 02:46:11 02:48:59 15° 85° (E) 02:52:01 435.225
STARS 02 Aug 02:47:55 02:50:50 18° 61° (ENE) 02:53:52 437.465
BUGSAT 1 02 Aug 02:48:19 02:50:43 15° 299° (WNW) 02:53:00 437.445
POPSAT HIP 1 02 Aug 02:50:19 02:51:35 11° 303° (WNW) 02:52:41 437.405
SWISSCUBE 02 Aug 02:59:58 03:04:36 45° 262° (W) 03:09:13 437.505
ITAMSAT 1 02 Aug 03:02:23 03:05:42 17° 88° (E) 03:09:10 435.822/435.867
JAS-2 02 Aug 03:06:28 03:10:32 15° 79° (E) 03:15:03 435.910
BEESAT 3 02 Aug 03:08:14 03:10:26 14° 336° (NNW) 03:12:34 437.485
KKS-1 02 Aug 03:15:37 03:19:53 48° 70° (ENE) 03:24:10 437.445
Oscar 19 02 Aug 03:17:18 03:22:31 77° 103° (ESE) 03:27:43 437.125/150
ITUPSAT 1 02 Aug 03:21:51 03:26:12 32° 265° (W) 03:30:31 437.325
Cosmos 2504 02 Aug 03:37:56 03:45:02 66° 94° (E) 03:52:44 435.465 / 435.565
RS-15 02 Aug 03:49:48 04:00:04 36° 10° (N) 04:10:49 29.354- 29.394
O/OREOS (USA 219) 02 Aug 04:00:35 04:04:19 25° 310° (NW) 04:08:03 437.305
ISS 02 Aug 04:06:55 04:09:50 30° 216° (SW) 04:12:43 145.825
AIST 2 02 Aug 04:08:31 04:11:19 17° 333° (NNW) 04:14:03 435.215
MOZHAYETS 4 02 Aug 04:13:55 04:17:47 27° 65° (ENE) 04:21:45
STARS 02 Aug 04:22:34 04:26:53 60° 259° (W) 04:31:14 437.465
Gurwin Techsat 1B 02 Aug 04:24:26 04:29:48 87° 290° (WNW) 04:35:08 435.225
ITAMSAT 1 02 Aug 04:40:39 04:45:51 73° 288° (WNW) 04:51:00 435.822/435.867
YUBILEINY 02 Aug 04:42:08 04:46:01 13° 317° (NW) 04:49:28 435.215
CUSAT 1 02 Aug 04:42:17 04:44:21 20° 95° (E) 04:46:23 437.405
JAS-2 02 Aug 04:49:20 04:57:08 67° 100° (E) 05:04:54 435.910
KKS-1 02 Aug 04:53:27 04:56:48 20° 269° (W) 05:00:04 437.445
AO-7 02 Aug 04:57:04 05:04:33 36° 95° (E) 05:12:05 29.400- 29.500
Oscar 19 02 Aug 04:57:44 05:01:21 19° 302° (WNW) 05:04:49 437.125/150
GONETS M04 02 Aug 05:26:02 05:31:39 20° 77° (ENE) 05:37:41
Cosmos 2504 02 Aug 05:31:42 05:38:01 29° 298° (WNW) 05:44:35 435.465 / 435.565
HORYU 2 02 Aug 05:45:41 05:50:14 81° 104° (ESE) 05:54:45 437.375
MOZHAYETS 4 02 Aug 05:50:29 05:54:53 40° 263° (W) 05:59:17
RS-15 02 Aug 06:03:41 06:15:13 64° 41° (NE) 06:27:16 29.354- 29.394
Gurwin Techsat 1B 02 Aug 06:05:49 06:09:06 16° 304° (NW) 06:12:13 435.225
CUBESAT XI-V 02 Aug 06:10:32 06:14:47 36° 68° (ENE) 06:19:05 437.345
DANDE 02 Aug 06:12:02 06:14:43 30° 286° (WNW) 06:17:07 436.750
ITAMSAT 1 02 Aug 06:22:01 06:24:33 13° 306° (NW) 06:26:52 435.822/435.867
CUSAT 1 02 Aug 06:25:45 06:26:56 12° 294° (WNW) 06:28:01 437.405
BEESAT 3 02 Aug 06:28:00 06:29:53 13° 23° (NNE) 06:31:50 437.485
JAS-2 02 Aug 06:34:53 06:41:44 35° 300° (WNW) 06:48:32 435.910
PRISM 02 Aug 06:48:01 06:51:16 22° 64° (ENE) 06:54:33 437.425
AO-7 02 Aug 06:49:39 06:57:52 62° 296° (WNW) 07:05:59 29.400- 29.500
Cubesat XI-IV 02 Aug 07:00:47 07:04:45 21° 90° (E) 07:08:50 437.490
STRAND 1 02 Aug 07:06:46 07:11:38 45° 68° (ENE) 07:16:33 437.568
GONETS M04 02 Aug 07:18:38 07:27:21 85° 98° (E) 07:36:06
HORYU 2 02 Aug 07:23:43 07:26:19 15° 302° (WNW) 07:28:45 437.375
BEESAT 2 02 Aug 07:26:58 07:30:13 22° 34° (NE) 07:33:28 435.950
AIST 2 02 Aug 07:30:14 07:32:03 12° 20° (NNE) 07:33:55 435.215
CUBESAT XI-V 02 Aug 07:48:11 07:52:18 29° 266° (W) 07:56:23 437.345
CUTE-I 02 Aug 07:55:35 08:00:52 59° 101° (E) 08:06:07 437.470
BEESAT 3 02 Aug 08:04:52 08:08:49 46° 45° (NE) 08:12:42 437.485
Cosmos 2499 02 Aug 08:11:41 08:18:45 48° 89° (E) 08:26:28 435.465 / 435.565
RS-15 02 Aug 08:16:28 08:27:40 52° 245° (WSW) 08:39:08 29.354- 29.394
PRISM 02 Aug 08:22:29 08:26:29 42° 261° (W) 08:30:28 437.425
Cubesat XI-IV 02 Aug 08:40:04 08:45:21 62° 290° (WNW) 08:50:35 437.490
AO-7 02 Aug 08:43:39 08:49:13 20° 319° (NW) 08:54:30 29.400- 29.500
STRAND 1 02 Aug 08:46:38 08:51:03 28° 267° (W) 08:55:25 437.568
DOVE 4 02 Aug 08:57:50 09:00:30 15° 88° (E) 09:03:25 437.250
CUTE 1.7 + AOD 2 02 Aug 09:00:25 09:01:38 11° 85° (E) 09:03:04 437.475
BEESAT 2 02 Aug 09:04:35 09:08:40 67° 235° (SW) 09:12:40 435.950
SO-50 02 Aug 09:06:54 09:09:24 15° 110° (ESE) 09:12:09 436.795
AIST 2 02 Aug 09:07:45 09:11:45 39° 43° (NE) 09:15:42 435.215
CANX-2 02 Aug 09:07:59 09:10:26 15° 88° (E) 09:13:02 2200.000
HO-68 02 Aug 09:08:48 09:14:14 23° 89° (E) 09:19:52 435.675
BRITE-PL 02 Aug 09:09:42 09:13:54 46° 99° (E) 09:18:24 437.365/2234.400
M-CUBED/EXP-1 PRIME 02 Aug 09:11:53 09:15:38 33° 60° (ENE) 09:19:43 437.505
GOMX 1 02 Aug 09:14:20 09:18:23 32° 96° (E) 09:22:42 467.674
GONETS M04 02 Aug 09:18:24 09:25:29 26° 302° (WNW) 09:32:22
CUTE-I 02 Aug 09:36:21 09:40:36 24° 300° (WNW) 09:44:45 437.470
AUBIESAT-1 02 Aug 09:39:38 09:43:42 51° 65° (ENE) 09:48:06 437.475
BEESAT 3 02 Aug 09:43:14 09:46:32 24° 244° (WSW) 09:49:43 437.485
TIGRISAT 02 Aug 09:44:52 09:46:51 13° 57° (ENE) 09:49:01 435.000
ANTELSAT 02 Aug 09:46:54 09:49:10 14° 58° (ENE) 09:51:37 437.575/2403.000
PCSat 02 Aug 09:47:12 09:52:17 44° 116° (ESE) 09:57:27 145.827
Cosmos 2499 02 Aug 10:04:59 10:12:07 41° 293° (WNW) 10:19:45 435.465 / 435.565
COMPASS 1 02 Aug 10:11:53 10:15:50 38° 96° (E) 10:19:47 437.405
ZACube-1 02 Aug 10:13:12 10:14:43 12° 85° (E) 10:16:30 437.345
POLYITAN 1 02 Aug 10:19:17 10:20:41 12° 58° (ENE) 10:22:16 437.675
Cubesat XI-IV 02 Aug 10:22:29 10:24:31 12° 308° (NW) 10:26:19 437.490
SEEDS 02 Aug 10:28:54 10:33:12 71° 102° (ESE) 10:37:26 437.485
DELFI C3 02 Aug 10:29:57 10:32:27 16° 89° (E) 10:35:04 145.870
FUNcube-1 02 Aug 10:33:05 10:36:08 18° 89° (E) 10:39:21 145.935
RS-15 02 Aug 10:33:52 10:37:38 11° 266° (W) 10:40:14 29.354- 29.394
CUTE 1.7 + AOD 2 02 Aug 10:33:54 10:38:14 84° 284° (WNW) 10:42:31 437.475
CINEMA 3 02 Aug 10:33:59 10:38:36 58° 100° (E) 10:43:24 145.822/145.860
DOVE 4 02 Aug 10:34:11 10:38:45 71° 286° (WNW) 10:43:35 437.250
POPSAT HIP 1 02 Aug 10:34:36 10:37:04 16° 61° (ENE) 10:39:40 437.405
UNISAT 6 02 Aug 10:36:12 10:40:14 37° 68° (ENE) 10:44:24 437.425
UWE-3 02 Aug 10:38:15 10:42:06 26° 93° (E) 10:46:04 435.000/436.395/437.385
QB50P2 02 Aug 10:42:05 10:45:00 19° 62° (ENE) 10:48:02 145.880/145.840
CANX-2 02 Aug 10:42:33 10:46:50 63° 287° (WNW) 10:51:04 2200.000
Oscar 11 02 Aug 10:43:07 10:47:03 32° 95° (E) 10:51:00 145.826/435.025
SO-50 02 Aug 10:44:28 10:49:17 89° 128° (SE) 10:54:15 436.795
YUBILEINY 02 Aug 10:46:24 10:53:36 28° 59° (ENE) 11:01:00 435.215
AIST 2 02 Aug 10:46:31 10:50:13 30° 242° (WSW) 10:53:50 435.215
M-CUBED/EXP-1 PRIME 02 Aug 10:46:39 10:50:25 32° 260° (W) 10:54:25 437.505
O/OREOS (USA 219) 02 Aug 10:47:27 10:51:19 26° 50° (NE) 10:55:14 437.305
BRITE-PL 02 Aug 10:48:52 10:52:17 22° 295° (WNW) 10:55:45 437.365/2234.400
HUMSAT D 02 Aug 10:49:34 10:50:35 11° 85° (E) 10:51:52 437.325/437.525
AAUSAT CUBESAT 2 02 Aug 10:52:01 10:56:16 85° 104° (ESE) 11:00:27 437.432
GOMX 1 02 Aug 10:52:32 10:56:32 32° 292° (WNW) 11:00:43 467.674
HO-68 02 Aug 10:55:37 11:02:50 79° 290° (WNW) 11:10:01 435.675
CUBEBUG 2 02 Aug 10:56:11 11:00:40 47° 98° (E) 11:05:15 437.445
DUCHIFAT 1 02 Aug 11:04:20 11:07:53 28° 66° (ENE) 11:11:30 145.980
QB50P1 02 Aug 11:08:29 11:12:11 31° 67° (ENE) 11:15:57 145.935-145.965
NANOSAT C BR1 02 Aug 11:09:09 11:12:51 31° 67° (ENE) 11:16:36 145.865
AUBIESAT-1 02 Aug 11:15:35 11:18:46 20° 265° (W) 11:22:01 437.475
DX 1 02 Aug 11:16:04 11:18:10 14° 88° (E) 11:20:27 434.975-435.025
TIGRISAT 02 Aug 11:18:34 11:22:56 90° 265° (W) 11:27:27 435.000
ANTELSAT 02 Aug 11:20:57 11:25:20 83° 256° (WSW) 11:29:53 437.575/2403.000
Cosmos 2491 02 Aug 11:28:55 11:34:06 18° 75° (ENE) 11:39:42 435.465 / 435.565
PCSat 02 Aug 11:30:44 11:35:49 39° 316° (NW) 11:40:54 145.827
VELOX 1 02 Aug 11:35:35 11:37:37 13° 87° (E) 11:39:53 145.980
ZACube-1 02 Aug 11:47:13 11:51:47 89° 285° (WNW) 11:56:24 437.345
COMPASS 1 02 Aug 11:47:51 11:51:21 25° 294° (WNW) 11:54:45 437.405
50 SAT 02 Aug 11:48:55 11:51:51 20° 91° (E) 11:54:52 437.505
POLYITAN 1 02 Aug 11:51:45 11:55:58 87° 70° (ENE) 12:00:13 437.675
ESTCUBE 1 02 Aug 11:52:22 11:54:49 15° 87° (E) 11:57:26 437.505/2401.250
AIST 1 02 Aug 11:58:43 12:01:36 18° 87° (E) 12:04:35
DELFI C3 02 Aug 12:03:54 12:07:53 52° 288° (WNW) 12:11:49 145.870
BUGSAT 1 02 Aug 12:05:04 12:09:06 75° 75° (ENE) 12:13:08 437.445
SEEDS 02 Aug 12:05:59 12:08:29 15° 300° (WNW) 12:10:51 437.485
Cosmos 2499 02 Aug 12:07:40 12:08:23 10° 321° (NW) 12:08:39 435.465 / 435.565
POPSAT HIP 1 02 Aug 12:08:19 12:12:29 65° 258° (WSW) 12:16:42 437.405
FUNcube-1 02 Aug 12:08:23 12:12:51 58° 287° (WNW) 12:17:21 145.935
CUTE 1.7 + AOD 2 02 Aug 12:11:53 12:13:29 12° 302° (WNW) 12:14:55 437.475
CINEMA 3 02 Aug 12:11:58 12:15:28 21° 297° (WNW) 12:18:58 145.822/145.860
UNISAT 6 02 Aug 12:13:24 12:17:08 26° 267° (W) 12:20:55 437.425
UWE-3 02 Aug 12:14:27 12:18:46 41° 291° (WNW) 12:23:07 435.000/436.395/437.385
DOVE 4 02 Aug 12:14:30 12:15:52 11° 302° (WNW) 12:17:01 437.250
QB50P2 02 Aug 12:16:27 12:20:33 52° 260° (W) 12:24:43 145.880/145.840
Oscar 11 02 Aug 12:19:21 12:23:11 30° 293° (WNW) 12:26:57 145.826/435.025
UKube-1 02 Aug 12:20:20 12:24:34 52° 100° (E) 12:28:49 .
HUMSAT D 02 Aug 12:22:40 12:27:02 88° 285° (WNW) 12:31:22 437.325/437.525
SO-50 02 Aug 12:26:30 12:30:29 24° 330° (NNW) 12:34:29 436.795
O/OREOS (USA 219) 02 Aug 12:26:34 12:30:58 46° 251° (WSW) 12:35:21 437.305
AAUSAT CUBESAT 2 02 Aug 12:29:20 12:31:17 13° 301° (WNW) 12:33:03 437.432
AISAT 02 Aug 12:31:48 12:36:04 48° 99° (E) 12:40:22 437.250
CUBEBUG 2 02 Aug 12:33:23 12:37:07 24° 296° (WNW) 12:40:50 437.445
DUCHIFAT 1 02 Aug 12:39:50 12:43:37 32° 264° (W) 12:47:24 145.980
CUBEBUG 1 02 Aug 12:41:40 12:45:39 35° 96° (E) 12:49:39 437.445
YUBILEINY 02 Aug 12:42:45 12:51:36 81° 264° (W) 13:00:26 435.215
QB50P1 02 Aug 12:44:24 12:48:04 28° 266° (W) 12:51:43 145.935-145.965
HO-68 02 Aug 12:44:30 12:49:38 21° 310° (NW) 12:54:34 435.675
NANOSAT C BR1 02 Aug 12:45:02 12:48:42 28° 266° (W) 12:52:20 145.865
DX 1 02 Aug 12:50:38 12:54:59 72° 287° (WNW) 12:59:19 434.975-435.025
TIGRISAT 02 Aug 12:59:20 13:00:31 11° 276° (W) 13:01:26 435.000
Oscar 19 02 Aug 13:00:00 13:04:07 26° 62° (ENE) 13:08:21 437.125/150
VELOX 1 02 Aug 13:10:21 13:14:47 75° 285° (WNW) 13:19:11 145.980
SPROUT 02 Aug 13:12:20 13:15:51 24° 93° (E) 13:19:26 437.525
PCSat 02 Aug 13:17:58 13:20:50 14° 340° (NNW) 13:23:37 145.827
TISAT 1 02 Aug 13:18:51 13:21:41 18° 90° (E) 13:24:38 437.305
Cosmos 2504 02 Aug 13:19:00 13:26:07 31° 63° (ENE) 13:33:36 435.465 / 435.565
Cosmos 2491 02 Aug 13:20:55 13:29:40 78° 96° (E) 13:38:25 435.465 / 435.565
50 SAT 02 Aug 13:22:51 13:26:37 40° 290° (WNW) 13:30:20 437.505
ZACube-1 02 Aug 13:25:15 13:27:32 13° 301° (WNW) 13:29:40 437.345
JAS-2 02 Aug 13:26:11 13:28:06 11° 41° (NE) 13:30:23 435.910
ESTCUBE 1 02 Aug 13:27:45 13:32:15 69° 287° (WNW) 13:36:42 437.505/2401.250
POLYITAN 1 02 Aug 13:31:40 13:32:34 10° 275° (W) 13:33:15 437.675
AIST 1 02 Aug 13:34:41 13:38:55 49° 284° (WNW) 13:43:08
BUGSAT 1 02 Aug 13:43:45 13:45:10 11° 273° (W) 13:46:22 437.445
UKube-1 02 Aug 13:57:13 14:00:23 20° 298° (WNW) 14:03:27 .
HUMSAT D 02 Aug 14:00:17 14:02:08 12° 302° (WNW) 14:03:50 437.325/437.525
AISAT 02 Aug 14:08:58 14:12:23 22° 297° (WNW) 14:15:44 437.250
Gurwin Techsat 1B 02 Aug 14:10:15 14:14:58 34° 65° (ENE) 14:19:46 435.225
SO-50 02 Aug 14:10:36 14:12:46 13° 354° (N) 14:14:56 436.795
AO-7 02 Aug 14:10:58 14:16:33 21° 43° (NE) 14:22:23 29.400- 29.500
CUBEBUG 1 02 Aug 14:18:14 14:21:54 27° 294° (WNW) 14:25:32 437.445
ITAMSAT 1 02 Aug 14:23:30 14:28:18 39° 66° (ENE) 14:33:09 435.822/435.867
DX 1 02 Aug 14:29:43 14:30:30 10° 305° (NW) 14:31:05 434.975-435.025
BEESAT 02 Aug 14:36:06 14:39:41 21° 91° (E) 14:43:21 436.000
Oscar 19 02 Aug 14:38:13 14:43:13 52° 260° (W) 14:48:15 437.125/150
YUBILEINY 02 Aug 14:41:16 14:47:11 19° 284° (WNW) 14:52:41 435.215
SPROUT 02 Aug 14:48:04 14:52:04 38° 291° (WNW) 14:56:02 437.525
VELOX 1 02 Aug 14:49:21 14:50:37 11° 304° (NW) 14:51:40 145.980
TISAT 1 02 Aug 14:53:41 14:57:47 51° 289° (WNW) 15:01:52 437.305
SWISSCUBE 02 Aug 14:56:25 15:00:46 34° 96° (E) 15:05:08 437.505
DANDE 02 Aug 15:02:19 15:04:43 17° 70° (ENE) 15:07:38 436.750
JAS-2 02 Aug 15:05:23 15:11:20 44° 63° (ENE) 15:18:04 435.910
PCSat 02 Aug 15:05:23 15:06:43 11° 7° (N) 15:08:06 145.827
ESTCUBE 1 02 Aug 15:07:24 15:08:20 10° 305° (NW) 15:09:05 437.505/2401.250
CUSAT 1 02 Aug 15:10:30 15:14:10 34° 74° (ENE) 15:18:56 437.405
Cosmos 2504 02 Aug 15:10:47 15:19:09 73° 265° (W) 15:27:44 435.465 / 435.565
HORYU 2 02 Aug 15:12:56 15:15:41 17° 60° (ENE) 15:18:34 437.375
ITUPSAT 1 02 Aug 15:18:00 15:22:39 49° 99° (E) 15:27:17 437.325
Cosmos 2491 02 Aug 15:20:12 15:27:38 29° 300° (WNW) 15:34:51 435.465 / 435.565
GONETS M04 02 Aug 15:29:18 15:33:06 14° 44° (NE) 15:37:22
Gurwin Techsat 1B 02 Aug 15:49:55 15:54:55 40° 263° (W) 15:59:54 435.225
SO-50 02 Aug 15:52:17 15:55:18 16° 18° (NNE) 15:58:22 436.795
AO-7 02 Aug 15:59:45 16:08:00 67° 65° (ENE) 16:16:18 29.400- 29.500
ITAMSAT 1 02 Aug 16:03:09 16:07:53 33° 265° (W) 16:12:35 435.822/435.867
STARS 02 Aug 16:09:07 16:12:15 19° 91° (E) 16:15:31 437.465
BEESAT 02 Aug 16:13:12 16:17:53 53° 290° (WNW) 16:22:30 436.000
SWISSCUBE 02 Aug 16:34:19 16:38:37 33° 294° (WNW) 16:42:49 437.505
KKS-1 02 Aug 16:39:11 16:43:36 59° 101° (E) 16:48:02 437.445
DANDE 02 Aug 16:44:19 16:47:51 45° 261° (W) 16:52:30 436.750
HORYU 2 02 Aug 16:47:23 16:51:51 70° 257° (WSW) 16:56:20 437.375
PCSat 02 Aug 16:48:11 16:52:18 22° 32° (NNE) 16:56:29 145.827
JAS-2 02 Aug 16:50:31 16:56:28 42° 266° (W) 17:03:08 435.910
CUSAT 1 02 Aug 16:53:05 16:56:41 28° 264° (W) 17:01:07 437.405
ITUPSAT 1 02 Aug 16:56:24 17:00:18 24° 298° (WNW) 17:04:04 437.325
Cosmos 2504 02 Aug 17:04:56 17:10:08 17° 284° (WNW) 17:14:59 435.465 / 435.565
GONETS M04 02 Aug 17:24:14 17:32:41 53° 71° (ENE) 17:41:13
SO-50 02 Aug 17:32:22 17:37:07 42° 41° (NE) 17:41:49 436.795
MOZHAYETS 4 02 Aug 17:41:37 17:45:55 37° 96° (E) 17:50:11
CUTE-I 02 Aug 17:42:51 17:47:00 24° 60° (ENE) 17:51:15 437.470
STARS 02 Aug 17:44:44 17:49:02 51° 289° (WNW) 17:53:20 437.465
AO-7 02 Aug 17:53:59 18:01:26 34° 266° (W) 18:08:46 29.400- 29.500
Cosmos 2499 02 Aug 17:57:19 18:04:12 26° 58° (ENE) 18:11:27 435.465 / 435.565
KKS-1 02 Aug 18:16:41 18:19:52 19° 299° (WNW) 18:22:56 437.445
Cubesat XI-IV 02 Aug 18:26:09 18:31:18 50° 68° (ENE) 18:36:29 437.490
PCSat 02 Aug 18:31:07 18:36:36 80° 54° (NE) 18:42:02 145.827
BRITE-PL 02 Aug 18:50:56 18:51:05 10° 58° (ENE) 18:51:25 437.365/2234.400
VERMONT LUNAR 02 Aug 18:56:17 18:57:24 11° 160° (SSE) 18:58:33 437.305
SO-50 02 Aug 19:13:05 19:17:40 37° 241° (WSW) 19:22:08 436.795
STRAND 1 02 Aug 19:16:07 19:17:08 11° 83° (E) 19:18:28 437.568
MOZHAYETS 4 02 Aug 19:19:01 19:23:03 29° 294° (WNW) 19:27:00
CUTE-I 02 Aug 19:21:24 19:26:43 61° 259° (WSW) 19:32:03 437.470
GONETS M04 02 Aug 19:21:25 19:29:25 41° 273° (W) 19:37:19
CUBESAT XI-V 02 Aug 19:40:16 19:44:48 53° 100° (E) 19:49:18 437.345
HO-68 02 Aug 19:41:47 19:47:35 29° 55° (NE) 19:53:32 435.675
Cosmos 2499 02 Aug 19:49:51 19:58:38 88° 260° (W) 20:07:33 435.465 / 435.565
SEEDS 02 Aug 19:52:17 19:53:20 11° 58° (ENE) 19:54:35 437.485
CUTE 1.7 + AOD 2 02 Aug 19:56:38 19:58:56 15° 60° (ENE) 20:01:23 437.475
PRISM 02 Aug 20:01:26 20:04:26 20° 92° (E) 20:07:31 437.425
CANX-2 02 Aug 20:04:32 20:07:29 19° 63° (ENE) 20:10:33 2200.000
CINEMA 3 02 Aug 20:06:40 20:07:22 10° 56° (ENE) 20:08:18 145.822/145.860
Cubesat XI-IV 02 Aug 20:07:08 20:11:41 27° 268° (W) 20:16:10 437.490
DOVE 4 02 Aug 20:07:35 20:10:39 21° 64° (ENE) 20:13:51 437.250
AAUSAT CUBESAT 2 02 Aug 20:13:35 20:15:11 12° 59° (ENE) 20:16:58 437.432
PCSat 02 Aug 20:15:43 20:19:27 18° 253° (WSW) 20:22:59 145.827
BRITE-PL 02 Aug 20:24:43 20:29:01 79° 75° (ENE) 20:33:12 437.365/2234.400
GOMX 1 02 Aug 20:26:41 20:30:42 49° 72° (ENE) 20:34:45 467.674
VERMONT LUNAR 02 Aug 20:31:04 20:33:26 19° 176° (S) 20:35:49 437.305
RS-15 02 Aug 20:36:44 20:43:36 20° 100° (E) 20:51:13 29.354- 29.394
ISS 02 Aug 20:50:28 20:51:21 11° 135° (SE) 20:52:20 145.825
STRAND 1 02 Aug 20:52:14 20:57:22 76° 103° (ESE) 21:02:28 437.568
COMPASS 1 02 Aug 21:06:25 21:10:23 42° 70° (ENE) 21:14:26 437.405
ZACube-1 02 Aug 21:12:49 21:15:11 15° 60° (ENE) 21:17:42 437.345
PHONESAT 2.4 02 Aug 21:14:29 21:16:45 16° 164° (SSE) 21:19:03 2401.200-2431.200
CUBESAT XI-V 02 Aug 21:18:25 21:21:56 21° 297° (WNW) 21:25:20 437.345
DELFI C3 02 Aug 21:20:48 21:23:31 18° 63° (ENE) 21:26:20 145.870
SEEDS 02 Aug 21:24:11 21:28:26 79° 75° (ENE) 21:32:44 437.485
HO-68 02 Aug 21:27:39 21:34:47 74° 255° (WSW) 21:41:59 435.675
CUTE 1.7 + AOD 2 02 Aug 21:30:02 21:34:19 75° 257° (WSW) 21:38:39 437.475
Cosmos 2491 02 Aug 21:32:11 21:35:11 12° 42° (NE) 21:38:42 435.465 / 435.565
FUNcube-1 02 Aug 21:32:39 21:35:51 22° 63° (ENE) 21:39:12 145.935
PRISM 02 Aug 21:36:11 21:40:07 43° 290° (WNW) 21:43:59 437.425
CANX-2 02 Aug 21:38:51 21:43:03 55° 260° (W) 21:47:18 2200.000
UWE-3 02 Aug 21:39:12 21:42:56 31° 67° (ENE) 21:46:48 435.000/436.395/437.385
